Regional Weather Roundup
Issued by NWS Newport/Morehead, NC

Current Version | Previous Version | Text Only | Print | Product List | Glossary On
Versions: 1 2 3 4 5 6 7 8 9 10 11 12 13 14 15 16 17 18 19 20 21 22 23 24 25 26 27 28 29 30 31 32 33 34 35 36 37 38 39 40 41 42 43 44 45 46 47 48 49 50
000
ASUS42 KMHX 221113
RWRMHX
WEATHER ROUNDUP FOR EASTERN NORTH CAROLINA
NATIONAL WEATHER SERVICE NEWPORT/MOREHEAD CITY NC
700 AM EDT WED MAR 22 2017

NOTE: "FAIR" INDICATES FEW OR NO CLOUDS BELOW 12,000 FEET
WITH NO SIGNIFICANT WEATHER AND/OR OBSTRUCTIONS TO VISIBILITY

NCZ015>017-031-032-045>047-102-103-221200-
NORTH COAST

CITY           SKY/WX    TMP DP  RH WIND       PRES   REMARKS
EDENTON        CLOUDY    51  47  86 N9        29.91S
ELIZABETH CITY LGT RAIN  50  47  89 N7        29.91F
KITTY HAWK     NOT AVBL
MANTEO         CLOUDY    48  47  93 NE9       29.91R

$$

NCZ045>047-081-094-103-104-221200-
CENTRAL COAST

CITY           SKY/WX    TMP DP  RH WIND       PRES   REMARKS
FRISCO         LGT RAIN  50  47  89 E9G22     29.91R FOG

$$

NCZ095-097-098-100-101-221200-
SOUTHERN COAST

CITY           SKY/WX    TMP DP  RH WIND       PRES   REMARKS
BEAUFORT       LGT RAIN  53  51  93 E9        29.84F
CEDAR ISLAND   NOT AVBL
JACKSONVILLE   LGT RAIN  54  54 100 NW12      29.89R
PINEY ISLAND   RAIN     N/A N/A N/A N22G29    29.85F
WILMINGTON     CLOUDY    60  59  96 CALM      29.89R FOG


$$

NCZ011>013-027>030-043-044-078>080-089-090>093-098-221200-
COASTAL PLAIN

CITY           SKY/WX    TMP DP  RH WIND       PRES   REMARKS
AHOSKIE        NOT AVBL
CLINTON        CLOUDY    59  58  98 N6        29.92R
ELIZABETHTOWN  MOCLDY    60  59  97 NW9       29.93R
GOLDSBORO      CLOUDY    54  54 100 N6        29.92R
GREENVILLE     LGT RAIN  52  50  93 N3        29.96R
HAVELOCK       NOT AVBL
KENANSVILLE    CLOUDY    54  54 100 NE5       29.92R FOG
KINSTON        CLOUDY    52  52 100 N6        29.92R
NEW BERN       CLOUDY    52  52 100 N12       29.89F
RICHLANDS      CLOUDY    54  53  97 W3        29.91R
ROCKY MOUNT    CLOUDY    51  50  96 N8        29.94R
WASHINGTON     CLOUDY    50  48  94 S3        29.93R
WHITEVILLE     CLOUDY    60  58  96 W3        29.91R FOG

$$

AMZ130-135-150-152-154-156-158-170-250-252-270-ANZ085-086-088-633-658-670-221200-
MARINE OBSERVATIONS

STATION/POSITION TIME  TEMP    WIND        PRES    WAVE   SWELL
                       AIR SEA DIR/SP/G            HT/PER HT/PER
                 (UTC) (F)     (DEG/KT/KT) (MB)    (FT/S) (FT/S)
CHESAPEAKE LIGHT NOT AVBL
64 E VA BEACH    1050   48 48  280/  2/  4 1013.3    4/11   3/11
DUCK             1048   49 48   20/ 17/ 18 1011.7
2 E DUCK         1100      48                N/A     2/11   2/11
OREGON INLET     1042   49 52   30/ 13/ 17 1011.6
13E OREGON INLT  NOT AVBL
HATTERAS CG      1048   50 55   70/  9/ 13 1012.5
DIAMOND BUOY     1050   59 72   40/ 16/ 17 1011.7    6/11   5/11
CAPE LOOKOUT     1100   56      40/ 18/ 20 1009.9
BEAUFORT LAB     1048   52 53   30/  7/ 11 1009.1
30 SE NEW RVR IN 1008   58      40/ 14/ 19 1009.7
30 SE NEW RVR IN 1043      64                N/A     5/ 6   2/12
27 SE WRIGHTSVLE 1008   61 64  360/ 10/ 14 1009.7
5 SE WRIGHTSVLE  1008   58 56  320/  2/  4 1010.9
225 S CAPE HAT   1050   73 75  220/ 21/ 27 1013.7    9/ 7   2/11
41 SE CHARLESTON 0950   67 66  230/ 14/ 16 1012.3    4/ 6   2/11

$$




USA.gov is the U.S. government's official web portal to all federal, state and local government web resources and services.